Temperature
19 19 19 18 18 18 18 18 18 18 18 18 18 18 18 18 18 18 18 18 18 18 18 18 18 18 18 18 18 18 18 18 18 18 18 18 18 18 18 17 17 17 17
19 19 19 19 18 18 18 18 18 18 18 18 18 18 18 18 18 18 18 18 18 18 18 18 18 18 18 18 18 18 18 18 18 18 18 18 18 17 17 17 17 17 17
19 19 19 19 19 18 18 18 18 18 18 18 18 18 18 18 18 18 18 18 18 18 18 18 18 18 18 18 18 18 18 18 18 18 18 18 18 17 17 17 17 17 17
19 19 19 19 19 18 18 18 18 18 18 18 18 18 18 18 18 18 18 18 18 18 18 18 18 18 18 18 18 18 18 18 18 17 17 17 17 17 17 17 17 17 17
19 19 19 19 19 19 18 18 18 18 18 18 18 18 18 18 18 18 18 18 18 18 18 18 18 18 18 18 18 18 18 18 18 18 17 17 18 18 18 17 17 17 17
19 19 19 19 19 19 19 18 18 18 18 18 18 18 18 18 18 18 18 18 18 18 18 18 18 18 18 18 18 18 18 18 18 18 18 18 18 18 18 18 17 17 17
20 19 19 19 19 19 19 19 18 18 18 18 18 18 18 18 18 18 18 18 18 18 18 18 18 18 18 18 18 18 18 18 18 18 17 18 18 18 18 18 17 17 17
20 19 20 19 19 19 19 19 19 19 18 18 18 18 18 18 18 18 18 18 18 18 18 18 18 18 18 18 18 18 18 18 18 18 18 18 18 18 18 18 17 17 17
20 20 19 19 19 19 19 19 19 19 19 18 18 18 18 18 18 18 18 18 18 18 18 18 18 18 18 18 18 18 18 18 18 18 18 18 18 18 18 18 17 17 17
21 20 19 19 19 19 19 19 19 19 19 18 18 18 18 18 18 18 18 18 18 18 18 18 18 18 18 18 18 19 19 19 18 18 18 18 18 18 18 18 18 17 17
21 20 20 19 19 19 19 19 19 19 19 18 18 18 18 18 18 18 18 18 18 18 18 18 18 18 18 19 19 19 19 19 18 18 18 18 18 18 18 18 18 17 17
21 21 21 20 20 20 19 19 19 18 18 18 18 18 18 18 18 18 18 18 18 18 19 18 18 18 18 18 18 19 19 19 19 19 19 18 18 18 18 18 18 17 17
21 21 21 20 20 20 19 19 19 19 19 18 18 18 18 18 18 18 18 18 18 18 18 18 18 18 18 18 18 19 19 19 19 19 18 18 18 18 18 18 18 18 17
22 21 21 20 20 20 19 19 19 19 19 19 19 19 18 18 18 18 18 18 18 18 18 18 18 18 18 18 18 18 18 19 19 19 19 18 18 18 18 18 18 18 18
21 21 20 20 20 19 19 19 19 19 19 19 19 19 19 19 18 18 18 18 18 18 18 18 18 18 18 18 18 19 19 19 19 19 18 18 18 18 18 18 18 18 18
21 21 20 20 19 19 19 19 19 19 19 19 19 18 18 18 18 18 18 18 18 18 18 18 18 18 18 18 18 18 18 18 18 18 18 18 18 18 18 18 18 18 18
21 21 20 20 19 19 19 19 19 19 19 19 19 19 19 18 18 18 18 18 18 18 18 18 18 18 18 18 18 18 18 18 18 18 18 18 18 18 18 18 18 18 18
21 21 20 20 20 19 19 19 19 19 19 19 19 19 18 18 18 18 18 18 18 18 18 18 18 18 18 18 18 18 18 18 18 18 18 18 18 18 18 18 18 18 18
21 21 20 20 20 19 19 19 19 19 19 19 19 19 18 18 18 18 18 18 18 18 18 18 18 18 18 18 18 18 18 18 18 18 18 18 18 18 18 18 17 17 17
21 21 20 20 20 19 19 19 19 19 19 19 19 19 18 18 18 18 18 18 18 18 18 18 18 18 18 18 18 18 18 18 18 18 18 18 18 17 17 17 17 17 17
21 21 20 20 20 20 19 19 19 19 19 19 19 19 18 18 18 18 18 18 18 18 18 18 18 18 18 18 18 18 18 18 18 18 18 18 17 17 17 17 17 17 17
22 21 21 20 20 20 20 20 19 19 19 19 19 19 18 18 18 18 18 18 18 18 18 18 18 18 18 18 18 18 18 18 18 18 18 17 17 17 17 17 17 16 16
22 21 21 21 20 20 20 20 20 19 19 19 19 19 18 18 18 18 18 18 18 18 18 18 18 18 18 18 18 18 18 18 17 17 17 17 17 17 17 16 16 16 16
23 22 21 21 21 20 20 20 20 20 19 19 19 19 18 18 18 18 18 18 18 18 18 18 18 18 18 18 18 18 18 18 17 17 17 17 16 16 16 16 16 16 16
23 22 22 21 21 21 20 20 20 20 19 19 19 19 19 18 18 18 18 18 18 18 18 18 18 18 18 18 18 18 18 18 18 17 16 16 16 16 16 15 15 15 15
24 23 22 21 21 21 21 20 20 20 20 19 19 19 19 19 18 18 18 18 18 18 18 18 18 18 18 18 18 18 18 17 17 17 16 16 16 15 15 15 15 15 15
Wind_Speed
11 12 13 13 13 13 14 15 15 15 16 15 15 16 17 17 17 17 17 17 17 17 18 18 18 19 18 18 18 18 18 18 18 18 18 18 17 16 17 16 16 17 18
13 13 13 13 13 13 14 15 15 16 16 15 16 16 17 17 17 17 16 17 17 18 18 18 18 18 17 17 17 17 17 17 17 18 18 17 16 15 14 14 16 16 18
14 13 13 13 13 14 14 14 15 15 15 16 16 16 16 16 17 17 17 17 17 18 18 18 17 17 16 16 16 16 16 16 16 16 16 15 15 15 16 18 19 18 17
14 13 13 13 13 14 15 15 15 15 15 16 16 16 15 16 16 16 17 17 17 17 17 17 16 16 16 15 14 14 14 13 13 12 10 13 15 16 17 17 17 16 16
15 15 14 13 14 14 15 15 15 15 15 16 15 15 15 15 15 16 17 17 17 17 16 16 15 15 14 13 12 11 10 9 8 7 9 15 16 16 16 16 15 15 15
15 16 15 13 14 14 14 14 14 14 14 15 15 14 14 15 15 16 16 16 16 15 15 15 15 14 13 12 10 8 6 4 4 6 11 15 15 16 15 15 14 14 14
15 16 15 13 13 13 12 13 13 13 13 14 14 14 14 14 15 16 16 16 16 15 15 14 13 13 11 10 7 6 4 1 2 6 12 15 16 16 15 14 14 13 13
15 15 14 13 13 13 13 13 13 12 12 12 12 13 13 13 14 15 15 15 14 14 13 12 12 11 10 7 5 3 2 2 4 9 14 15 17 16 15 14 13 13 12
14 14 12 13 12 13 13 12 12 11 11 11 11 11 11 12 12 13 13 13 12 12 11 10 10 9 8 6 3 1 1 3 2 7 13 14 17 16 14 13 12 12 11
11 12 10 11 12 11 12 12 11 10 10 9 9 9 10 11 11 12 12 11 11 10 9 8 8 7 5 4 2 2 2 4 2 8 11 14 17 15 14 12 11 11 10
9 9 8 9 8 9 11 12 11 10 8 8 7 7 7 7 9 9 11 11 10 8 8 7 7 6 5 5 4 4 3 3 3 8 11 16 17 15 14 12 11 11 10
7 8 7 8 6 7 8 10 8 8 8 6 6 7 6 5 7 9 11 11 10 8 7 7 7 7 7 6 7 6 4 4 4 7 11 17 16 15 14 12 11 11 10
7 7 8 8 6 6 5 6 4 6 7 5 5 5 4 3 5 8 9 8 8 9 8 8 9 7 7 5 4 6 5 2 4 8 12 16 15 14 13 12 11 11 11
7 8 8 8 7 6 5 3 3 4 4 3 4 4 3 1 1 2 3 5 5 5 5 5 4 4 3 2 1 1 1 1 4 9 12 15 14 13 12 11 11 11 11
7 8 9 8 7 5 4 3 4 3 3 4 4 3 3 2 1 2 1 1 1 3 3 2 1 0 0 1 1 1 1 1 4 7 9 13 14 12 12 11 10 10 11
8 8 8 8 7 4 3 1 1 2 4 4 4 4 3 2 1 1 1 1 1 0 1 1 1 1 1 1 0 1 1 2 3 5 7 8 11 11 11 10 10 10 11
8 8 7 7 7 4 2 1 1 1 3 4 4 3 2 2 1 1 1 1 1 1 0 1 0 1 1 1 2 1 1 2 2 4 5 6 7 8 9 10 9 9 9
9 7 4 6 8 5 2 1 2 2 3 3 3 3 3 2 0 1 1 1 1 1 1 1 1 0 0 0 1 1 1 2 2 3 4 5 6 6 7 8 9 8 8
9 8 5 5 6 5 4 2 1 2 2 1 2 2 2 2 0 1 0 0 1 0 1 1 1 1 1 0 0 1 2 1 2 2 3 4 5 6 6 7 8 7 6
9 8 7 5 5 3 3 2 1 1 1 1 2 2 2 1 1 1 0 1 1 1 1 1 1 0 1 1 1 0 1 1 2 2 2 3 4 5 5 6 6 6 5
10 9 7 6 5 3 2 1 2 1 1 2 2 3 2 1 2 1 2 1 1 0 0 1 0 1 1 2 1 1 1 2 2 2 2 2 3 5 6 6 6 5 5
11 10 8 7 6 5 3 2 1 1 1 2 2 3 3 3 2 2 1 1 1 0 0 1 0 1 1 1 1 1 1 1 2 2 3 3 3 4 5 5 5 6 5
11 11 9 8 7 6 5 3 2 1 0 1 3 3 2 2 2 2 1 1 2 1 1 1 0 1 1 1 1 1 1 1 1 1 3 3 3 3 3 5 6 8 8
12 11 9 8 7 6 5 3 3 3 2 2 2 3 2 2 2 1 2 2 2 2 2 1 1 1 1 2 1 1 0 2 2 1 2 3 3 4 3 4 6 8 8
13 12 10 9 7 6 5 4 3 2 2 3 3 4 3 2 2 1 2 2 2 1 2 2 2 1 1 1 2 1 1 1 1 1 1 1 3 3 4 5 5 7 9
12 12 12 10 8 7 6 5 3 2 2 2 2 2 2 3 2 2 3 2 1 2 2 1 2 1 1 1 2 2 1 0 1 1 2 2 2 3 4 4 4 6 8
Wind_Direction
85 77 65 63 65 67 69 72 75 75 74 77 78 82 89 90 92 92 94 96 96 95 94 94 95 95 96 98 101 103 105 106 107 107 108 111 113 115 118 121 121 113 117
94 88 76 66 67 70 73 76 77 76 75 77 79 82 87 89 91 93 95 97 98 96 95 94 96 97 98 100 104 108 110 112 114 114 114 112 113 114 115 115 114 119 120
98 95 84 73 72 74 77 81 81 78 76 75 77 81 85 90 91 92 94 98 99 97 97 96 96 99 100 102 105 109 113 117 121 125 125 119 114 111 109 108 113 119 120
98 93 85 80 77 77 78 81 82 81 77 77 78 81 84 89 91 93 94 97 99 97 97 97 98 98 100 103 106 110 115 122 128 136 132 120 116 111 111 112 116 120 122
97 94 92 87 82 79 80 81 83 83 81 80 80 82 84 87 90 94 96 98 98 98 97 100 101 100 101 103 106 112 118 125 131 133 112 106 107 115 115 117 120 123 123
106 100 97 92 88 84 84 86 86 86 83 82 82 82 85 86 90 96 98 98 99 102 102 102 102 102 102 103 106 109 112 126 132 120 115 111 114 121 121 123 124 124 124
107 105 105 102 95 90 88 89 89 89 88 86 86 86 87 89 91 94 97 98 99 101 102 104 104 105 104 104 106 106 108 102 160 111 107 109 119 124 126 127 127 128 129
109 107 112 111 106 102 102 100 96 94 94 94 93 94 94 94 96 98 99 101 103 105 106 109 110 110 108 107 109 106 95 347 98 111 109 114 125 127 127 129 131 134 136
112 115 126 125 119 113 110 110 108 105 102 102 103 103 105 105 105 106 106 105 107 110 111 112 115 117 118 121 125 126 319 335 49 117 114 122 131 131 133 136 138 140 143
108 116 128 132 137 132 124 125 122 120 118 116 116 119 121 119 119 120 120 117 116 118 121 123 127 132 136 146 176 251 295 322 183 114 114 129 137 137 140 144 146 148 150
104 111 122 121 130 136 131 135 138 135 137 137 139 144 150 144 138 136 125 129 130 131 137 146 153 163 177 196 220 242 275 263 117 114 121 137 143 144 147 150 153 156 158
115 118 115 109 113 115 116 131 143 139 142 157 143 154 164 154 140 135 137 143 148 155 162 174 183 193 203 204 209 217 233 216 149 122 128 144 149 151 153 158 162 164 167
124 116 111 101 95 87 97 119 124 126 133 142 138 136 131 130 142 143 151 158 170 178 189 184 198 211 205 206 196 190 208 224 131 117 138 149 152 156 160 165 171 175 177
121 111 102 99 85 61 58 83 116 108 118 115 115 110 112 104 43 109 151 164 179 184 188 195 206 204 202 180 218 197 178 106 105 117 145 155 158 163 167 172 179 184 186
120 109 97 95 86 80 52 13 71 72 90 97 95 87 88 97 72 54 19 35 165 169 162 191 223 274 256 231 229 194 154 135 109 118 142 160 164 169 175 180 186 190 192
128 115 113 112 108 100 96 51 57 95 109 105 87 81 79 88 94 92 38 7 305 338 127 181 179 160 192 194 210 54 68 71 95 120 142 164 173 177 182 187 195 201 201
130 121 128 132 122 120 122 147 113 107 99 104 107 103 100 105 128 194 169 195 246 243 176 257 268 171 197 185 156 160 128 120 125 133 151 164 172 179 186 189 196 202 204
133 129 136 130 126 123 102 21 24 46 70 78 106 113 96 88 132 214 182 177 226 221 228 219 243 247 133 46 97 146 156 136 149 156 158 157 159 167 178 184 188 193 201
134 135 136 117 126 137 143 158 118 81 76 98 92 99 98 104 7 303 82 78 285 291 272 272 100 22 359 10 233 193 189 167 161 144 129 138 141 148 160 177 179 179 187
140 142 146 140 135 146 143 149 124 124 147 113 92 84 102 122 89 337 201 78 333 315 335 26 46 258 242 244 262 10 83 137 124 115 133 114 128 138 137 145 156 160 161
149 151 156 160 152 159 157 167 169 164 161 129 123 102 106 84 65 49 33 31 309 343 329 312 0 231 218 186 174 119 87 95 104 109 100 99 96 102 110 119 128 141 148
159 161 164 168 165 171 164 167 175 155 146 130 104 103 88 81 51 62 78 329 33 350 3 323 268 276 259 195 182 172 135 69 60 82 87 86 83 83 93 103 104 110 109
166 171 174 173 168 173 166 175 165 139 147 143 132 116 101 93 80 34 36 17 357 22 59 280 351 300 277 281 190 181 167 156 96 63 80 88 86 79 70 81 86 87 88
171 170 163 164 164 165 173 182 187 179 174 141 129 127 137 117 106 88 51 31 3 4 22 340 55 316 286 306 298 276 206 129 156 104 55 65 70 69 65 68 78 85 90
171 166 162 159 162 167 174 185 195 186 165 138 125 138 153 141 124 75 72 40 0 17 10 339 347 344 338 309 309 321 336 123 130 154 144 91 66 53 57 61 68 77 80
168 165 162 159 164 166 176 178 167 159 122 106 118 158 179 153 125 82 85 46 9 9 348 360 344 9 360 327 310 310 309 102 168 158 164 147 110 82 68 58 65 78 82
Height
1512 1510 1509 1508 1506 1506 1506 1505 1505 1505 1504 1504 1504 1504 1504 1506 1507 1509 1510 1511 1512 1514 1515 1517 1518 1519 1520 1522 1523 1525 1526 1528 1530 1532 1534 1536 1538 1540 1542 1544 1546 1547 1549
1514 1512 1511 1510 1509 1508 1508 1508 1508 1508 1507 1507 1507 1507 1508 1509 1511 1512 1513 1514 1515 1517 1518 1519 1521 1522 1523 1525 1526 1528 1529 1531 1533 1534 1535 1537 1539 1542 1544 1546 1548 1549 1551
1515 1514 1513 1512 1511 1511 1511 1511 1511 1511 1511 1511 1510 1511 1512 1513 1514 1515 1516 1516 1518 1520 1521 1522 1523 1525 1526 1528 1529 1531 1532 1534 1535 1536 1537 1539 1541 1544 1546 1548 1550 1551 1553
1517 1516 1515 1515 1514 1514 1514 1515 1515 1515 1515 1514 1514 1514 1515 1516 1517 1518 1519 1520 1521 1522 1524 1525 1526 1528 1530 1531 1532 1534 1535 1537 1538 1539 1540 1542 1543 1546 1548 1550 1551 1553 1555
1519 1517 1517 1517 1517 1517 1517 1517 1518 1518 1518 1518 1518 1518 1518 1519 1520 1521 1522 1523 1524 1526 1527 1528 1529 1531 1533 1534 1535 1537 1538 1540 1541 1543 1544 1545 1546 1548 1550 1551 1553 1555 1556
1521 1520 1520 1519 1519 1519 1520 1520 1520 1521 1521 1521 1521 1521 1522 1523 1523 1525 1525 1526 1527 1528 1530 1531 1532 1534 1536 1537 1539 1540 1541 1543 1544 1546 1547 1548 1549 1550 1552 1553 1555 1556 1558
1523 1523 1522 1522 1522 1522 1522 1523 1523 1524 1524 1524 1524 1525 1525 1526 1527 1527 1528 1529 1530 1531 1532 1534 1535 1537 1538 1540 1541 1542 1544 1545 1547 1548 1549 1550 1551 1552 1553 1555 1556 1558 1559
1525 1525 1525 1525 1525 1524 1524 1525 1526 1526 1527 1527 1528 1528 1529 1529 1530 1531 1531 1532 1533 1534 1535 1537 1538 1540 1541 1542 1544 1545 1546 1547 1549 1550 1551 1552 1553 1554 1555 1556 1557 1559 1561
1527 1527 1527 1527 1527 1527 1527 1528 1528 1529 1530 1530 1531 1531 1532 1533 1533 1534 1534 1535 1536 1537 1538 1540 1541 1542 1543 1545 1546 1547 1548 1550 1551 1552 1553 1553 1554 1555 1557 1558 1559 1560 1562
1530 1530 1530 1530 1530 1530 1530 1531 1531 1532 1533 1533 1534 1534 1535 1535 1536 1537 1537 1538 1539 1540 1541 1542 1543 1544 1546 1547 1548 1549 1551 1552 1553 1553 1554 1555 1556 1557 1558 1559 1560 1561 1562
1532 1532 1533 1533 1533 1533 1533 1534 1534 1535 1535 1536 1536 1537 1538 1538 1538 1539 1540 1540 1542 1543 1544 1545 1546 1547 1548 1549 1550 1551 1552 1553 1554 1554 1555 1556 1557 1558 1558 1559 1561 1562 1563
1533 1534 1535 1535 1536 1536 1537 1536 1537 1537 1538 1538 1539 1539 1540 1541 1541 1542 1542 1543 1544 1545 1545 1547 1547 1548 1549 1551 1552 1552 1553 1554 1554 1555 1555 1557 1557 1558 1559 1560 1561 1562 1563
1534 1535 1536 1536 1537 1538 1539 1539 1540 1540 1540 1540 1541 1541 1542 1543 1543 1544 1544 1544 1545 1546 1547 1548 1548 1550 1551 1552 1553 1553 1554 1554 1555 1555 1555 1557 1558 1559 1559 1560 1561 1562 1563
1536 1537 1537 1538 1538 1539 1540 1541 1541 1542 1542 1542 1542 1543 1543 1544 1545 1545 1546 1546 1547 1547 1548 1549 1550 1551 1552 1553 1553 1554 1554 1555 1555 1555 1556 1557 1558 1559 1559 1560 1561 1561 1562
1537 1538 1538 1538 1539 1540 1540 1541 1542 1543 1543 1543 1543 1543 1544 1545 1545 1546 1547 1547 1548 1549 1549 1550 1550 1551 1552 1552 1553 1554 1555 1555 1555 1556 1556 1557 1557 1558 1559 1559 1560 1561 1561
1537 1538 1539 1539 1539 1540 1541 1542 1543 1544 1544 1544 1544 1543 1544 1545 1545 1546 1547 1547 1548 1549 1550 1550 1550 1551 1551 1552 1553 1554 1554 1555 1555 1555 1556 1556 1557 1557 1558 1558 1559 1560 1560
1537 1538 1539 1540 1540 1541 1542 1543 1544 1544 1545 1544 1544 1544 1545 1545 1545 1546 1547 1547 1548 1549 1550 1550 1550 1551 1551 1552 1552 1553 1553 1554 1554 1555 1555 1555 1556 1556 1557 1557 1558 1558 1559
1537 1538 1540 1541 1541 1541 1542 1543 1544 1545 1544 1544 1544 1545 1545 1545 1545 1546 1546 1547 1548 1548 1549 1549 1550 1550 1551 1551 1552 1552 1553 1553 1553 1554 1554 1554 1554 1555 1555 1556 1556 1556 1557
1536 1538 1539 1540 1541 1542 1543 1543 1544 1544 1544 1544 1544 1544 1544 1544 1545 1545 1546 1546 1547 1548 1548 1549 1549 1549 1549 1550 1550 1551 1552 1552 1553 1553 1553 1553 1553 1553 1554 1554 1554 1554 1555
1536 1537 1539 1540 1541 1542 1543 1544 1544 1545 1545 1545 1545 1544 1544 1544 1545 1545 1546 1546 1546 1547 1547 1548 1548 1548 1548 1549 1549 1550 1550 1551 1551 1552 1552 1552 1553 1553 1552 1552 1552 1552 1552
1535 1537 1538 1539 1541 1542 1543 1544 1544 1545 1545 1545 1545 1544 1544 1545 1545 1545 1545 1546 1546 1546 1546 1547 1547 1547 1547 1548 1548 1549 1549 1550 1550 1550 1551 1551 1552 1552 1551 1551 1551 1551 1551
1534 1535 1537 1538 1540 1541 1542 1543 1544 1544 1545 1545 1545 1545 1545 1545 1545 1546 1545 1546 1546 1546 1546 1546 1546 1547 1547 1547 1548 1548 1549 1550 1550 1550 1550 1550 1550 1550 1550 1550 1549 1549 1549
1532 1534 1536 1537 1539 1540 1542 1543 1544 1544 1544 1545 1545 1545 1545 1545 1546 1546 1546 1546 1546 1546 1546 1546 1546 1546 1546 1546 1547 1548 1548 1548 1549 1549 1549 1549 1549 1549 1549 1549 1548 1548 1548
1531 1533 1535 1536 1538 1539 1541 1542 1543 1543 1544 1545 1545 1545 1545 1545 1545 1545 1545 1545 1545 1545 1545 1545 1545 1545 1545 1545 1546 1546 1547 1546 1547 1548 1549 1549 1549 1549 1549 1548 1548 1547 1547
1529 1531 1533 1535 1537 1538 1539 1541 1542 1543 1544 1545 1545 1546 1546 1546 1545 1545 1545 1545 1545 1545 1544 1544 1544 1544 1544 1544 1544 1544 1545 1545 1545 1546 1547 1548 1548 1548 1548 1548 1547 1547 1546
1527 1529 1531 1533 1535 1537 1539 1540 1541 1542 1543 1544 1545 1545 1546 1546 1545 1545 1545 1544 1544 1544 1544 1543 1543 1543 1542 1542 1543 1543 1543 1544 1544 1544 1545 1546 1547 1547 1547 1547 1547 1546 1546